"Period start","avg(HW err(1)/warn(2) (#))","avg(Visibility (m))","avg(Weather code (#))","avg(Precip intensity (mm/h))","min(HW err(1)/warn(2) (#))","max(HW err(1)/warn(2) (#))","std(HW err(1)/warn(2) (#))","med(HW err(1)/warn(2) (#))","min(Visibility (m))","max(Visibility (m))","std(Visibility (m))","med(Visibility (m))","min(Weather code (#))","max(Weather code (#))","std(Weather code (#))","med(Weather code (#))","min(Precip intensity (mm/h))","max(Precip intensity (mm/h))","std(Precip intensity (mm/h))","med(Precip intensity (mm/h))"
2017-08-07 00:00:00,0,35984,0,0.00,0,0,0,0,22742,50000,10876,32204,0,0,0,0,0.00,0.00,0.00,0.00
2017-08-07 00:10:00,0,31664,0,0.00,0,0,0,0,18311,50000,10714,30604,0,0,0,0,0.00,0.00,0.00,0.00
2017-08-07 00:20:00,0,41276,0,0.00,0,0,0,0,35255,50000,6184,37524,0,0,0,0,0.00,0.00,0.00,0.00
2017-08-07 00:30:00,0,36557,0,0.00,0,0,0,0,21005,50000,9192,35116,0,0,0,0,0.00,0.00,0.00,0.00
2017-08-07 00:40:00,0,39764,0,0.00,0,0,0,0,21185,50000,10131,41036,0,0,0,0,0.00,0.00,0.00,0.00
2017-08-07 00:50:00,0,37723,0,0.00,0,0,0,0,33120,45229,3514,37353,0,0,0,0,0.00,0.00,0.00,0.00
2017-08-07 01:00:00,0,40211,0,0.00,0,0,0,0,22573,50000,8824,44840,0,0,0,0,0.00,0.00,0.00,0.00
2017-08-07 01:10:00,0,40163,0,0.00,0,0,0,0,25031,50000,9494,41295,0,0,0,0,0.00,0.00,0.00,0.00
2017-08-07 01:20:00,0,39009,0,0.00,0,0,0,0,22454,50000,10413,43898,0,0,0,0,0.00,0.00,0.00,0.00
2017-08-07 01:30:00,0,40623,0,0.00,0,0,0,0,33453,47760,4812,41694,0,0,0,0,0.00,0.00,0.00,0.00
2017-08-07 01:40:00,0,42506,0,0.00,0,0,0,0,26889,48907,6769,45072,0,0,0,0,0.00,0.00,0.00,0.00
2017-08-07 01:50:00,0,39767,0,0.00,0,0,0,0,34226,45493,4010,39342,0,0,0,0,0.00,0.00,0.00,0.00
2017-08-07 02:00:00,0,37214,0,0.00,0,0,0,0,27769,43995,4962,37360,0,0,0,0,0.00,0.00,0.00,0.00
2017-08-07 02:10:00,0,37510,0,0.00,0,0,0,0,24111,50000,9022,36966,0,0,0,0,0.00,0.00,0.00,0.00
2017-08-07 02:20:00,0,38351,0,0.00,0,0,0,0,27069,50000,8425,35656,0,0,0,0,0.00,0.00,0.00,0.00
2017-08-07 02:30:00,0,44177,0,0.00,0,0,0,0,32896,50000,5974,46686,0,0,0,0,0.00,0.00,0.00,0.00
2017-08-07 02:40:00,0,36126,0,0.00,0,0,0,0,27370,50000,5798,35335,0,0,0,0,0.00,0.00,0.00,0.00
2017-08-07 02:50:00,0,44845,0,0.00,0,0,0,0,33441,50000,6191,48016,0,0,0,0,0.00,0.00,0.00,0.00
2017-08-07 03:00:00,0,35250,0,0.00,0,0,0,0,23011,50000,9443,32431,0,0,0,0,0.00,0.00,0.00,0.00
2017-08-07 03:10:00,0,46291,0,0.00,0,0,0,0,36978,50000,4162,47997,0,0,0,0,0.00,0.00,0.00,0.00
2017-08-07 03:20:00,0,39021,0,0.00,0,0,0,0,29669,48039,6490,39772,0,0,0,0,0.00,0.00,0.00,0.00
2017-08-07 03:30:00,0,45360,0,0.00,0,0,0,0,33352,50000,6304,49391,0,0,0,0,0.00,0.00,0.00,0.00
2017-08-07 03:40:00,0,40011,0,0.00,0,0,0,0,29024,50000,7680,43070,0,0,0,0,0.00,0.00,0.00,0.00
2017-08-07 03:50:00,0,37653,0,0.00,0,0,0,0,20925,50000,11465,39079,0,0,0,0,0.00,0.00,0.00,0.00
2017-08-07 04:00:00,0,44992,0,0.00,0,0,0,0,36989,50000,4148,43774,0,0,0,0,0.00,0.00,0.00,0.00
2017-08-07 04:10:00,0,37966,0,0.00,0,0,0,0,24676,49453,7313,37870,0,0,0,0,0.00,0.00,0.00,0.00
2017-08-07 04:20:00,0,45614,0,0.00,0,0,0,0,34876,50000,4750,46702,0,0,0,0,0.00,0.00,0.00,0.00
2017-08-07 04:30:00,0,44930,0,0.00,0,0,0,0,36769,50000,3983,45186,0,0,0,0,0.00,0.00,0.00,0.00
2017-08-07 04:40:00,0,46120,0,0.00,0,0,0,0,39342,50000,3917,46736,0,0,0,0,0.00,0.00,0.00,0.00
2017-08-07 04:50:00,0,44481,0,0.00,0,0,0,0,33218,50000,5109,45378,0,0,0,0,0.00,0.00,0.00,0.00
2017-08-07 05:00:00,0,43036,0,0.00,0,0,0,0,34401,50000,5151,44848,0,0,0,0,0.00,0.00,0.00,0.00
2017-08-07 05:10:00,0,47879,0,0.00,0,0,0,0,41213,50000,3244,49922,0,0,0,0,0.00,0.00,0.00,0.00
2017-08-07 05:20:00,0,44771,0,0.00,0,0,0,0,35284,50000,5480,46886,0,0,0,0,0.00,0.00,0.00,0.00
2017-08-07 05:30:00,0,47304,0,0.00,0,0,0,0,40694,50000,3307,48956,0,0,0,0,0.00,0.00,0.00,0.00
2017-08-07 05:40:00,0,48927,0,0.00,0,0,0,0,43966,50000,1986,50000,0,0,0,0,0.00,0.00,0.00,0.00
2017-08-07 05:50:00,0,44223,0,0.00,0,0,0,0,37082,50000,3800,45186,0,0,0,0,0.00,0.00,0.00,0.00
2017-08-07 06:00:00,0,46565,0,0.00,0,0,0,0,39614,50000,4002,48261,0,0,0,0,0.00,0.00,0.00,0.00
2017-08-07 06:10:00,0,44072,0,0.00,0,0,0,0,35124,50000,4842,44962,0,0,0,0,0.00,0.00,0.00,0.00
2017-08-07 06:20:00,0,45745,0,0.00,0,0,0,0,33147,50000,5548,48770,0,0,0,0,0.00,0.00,0.00,0.00
2017-08-07 06:30:00,0,37430,0,0.00,0,0,0,0,27170,50000,7183,37664,0,0,0,0,0.00,0.00,0.00,0.00
2017-08-07 06:40:00,0,39706,0,0.00,0,0,0,0,28948,47205,5157,38633,0,0,0,0,0.00,0.00,0.00,0.00
2017-08-07 06:50:00,0,40254,0,0.00,0,0,0,0,30999,50000,5449,39475,0,0,0,0,0.00,0.00,0.00,0.00
2017-08-07 07:00:00,0,37198,0,0.00,0,0,0,0,32102,47197,4320,37238,0,0,0,0,0.00,0.00,0.00,0.00
2017-08-07 07:10:00,0,39563,0,0.00,0,0,0,0,32551,45331,3524,40248,0,0,0,0,0.00,0.00,0.00,0.00
2017-08-07 07:20:00,0,39631,0,0.00,0,0,0,0,24844,50000,10236,44644,0,0,0,0,0.00,0.00,0.00,0.00
2017-08-07 07:30:00,0,39117,0,0.00,0,0,0,0,30611,49084,6656,38531,0,0,0,0,0.00,0.00,0.00,0.00
2017-08-07 07:40:00,0,37180,0,0.00,0,0,0,0,26416,50000,6833,35702,0,0,0,0,0.00,0.00,0.00,0.00
2017-08-07 07:50:00,0,41134,0,0.00,0,0,0,0,30081,47092,4989,42318,0,0,0,0,0.00,0.00,0.00,0.00
2017-08-07 08:00:00,0,40401,0,0.00,0,0,0,0,31669,47669,5285,42182,0,0,0,0,0.00,0.00,0.00,0.00
2017-08-07 08:10:00,0,38972,0,0.00,0,0,0,0,29513,47786,5539,38468,0,0,0,0,0.00,0.00,0.00,0.00
2017-08-07 08:20:00,0,39881,0,0.00,0,0,0,0,14205,50000,9834,42008,0,0,0,0,0.00,0.00,0.00,0.00
2017-08-07 08:30:00,0,32959,0,0.00,0,0,0,0,19309,39489,5380,33604,0,0,0,0,0.00,0.00,0.00,0.00
2017-08-07 08:40:00,0,36019,0,0.00,0,0,0,0,25315,44406,5565,37344,0,0,0,0,0.00,0.00,0.00,0.00
2017-08-07 08:50:00,0,35779,0,0.00,0,0,0,0,25946,41337,5565,37926,0,0,0,0,0.00,0.00,0.00,0.00
2017-08-07 09:00:00,0,33182,0,0.00,0,0,0,0,28141,43661,4952,31348,0,0,0,0,0.00,0.00,0.00,0.00
2017-08-07 09:10:00,0,26663,0,0.00,0,0,0,0,22737,34327,3186,26836,0,0,0,0,0.00,0.00,0.00,0.00
2017-08-07 09:20:00,0,24754,0,0.00,0,0,0,0,17482,30130,3109,24714,0,0,0,0,0.00,0.00,0.00,0.00
2017-08-07 09:30:00,0,20618,0,0.00,0,0,0,0,17451,24682,2317,20362,0,0,0,0,0.00,0.00,0.00,0.00
2017-08-07 09:40:00,0,22705,0,0.00,0,0,0,0,20281,26454,1657,22662,0,0,0,0,0.00,0.00,0.00,0.00
2017-08-07 09:50:00,0,18169,0,0.00,0,0,0,0,14985,20307,1487,18545,0,0,0,0,0.00,0.00,0.00,0.00
2017-08-07 10:00:00,0,14682,0,0.00,0,0,0,0,13622,15561,576,14530,0,0,0,0,0.00,0.00,0.00,0.00
2017-08-07 10:10:00,0,12337,0,0.00,0,0,0,0,11264,14556,1104,11862,0,0,0,0,0.00,0.00,0.00,0.00
2017-08-07 10:20:00,0,11833,0,0.00,0,0,0,0,11201,12554,457,11820,0,0,0,0,0.00,0.00,0.00,0.00
2017-08-07 10:30:00,0,11251,0,0.00,0,0,0,0,10427,12200,593,11408,0,0,0,0,0.00,0.00,0.00,0.00
2017-08-07 10:40:00,0,10107,0,0.00,0,0,0,0,9491,11413,500,9975,0,0,0,0,0.00,0.00,0.00,0.00
2017-08-07 10:50:00,0,9413,0,0.00,0,0,0,0,8966,9897,279,9392,0,0,0,0,0.00,0.00,0.00,0.00
2017-08-07 11:00:00,0,9074,0,0.00,0,0,0,0,8488,9550,333,9108,0,0,0,0,0.00,0.00,0.00,0.00
2017-08-07 11:10:00,0,8675,9,0.00,0,0,0,0,8144,8931,221,8739,0,10,3,10,0.00,0.00,0.00,0.00
2017-08-07 11:20:00,0,8658,10,0.00,0,0,0,0,8259,9219,294,8600,10,10,0,10,0.00,0.00,0.00,0.00
2017-08-07 11:30:00,0,8424,10,0.00,0,0,0,0,8139,8768,197,8387,10,10,0,10,0.00,0.00,0.00,0.00
2017-08-07 11:40:00,0,8522,10,0.00,0,0,0,0,8196,8750,152,8539,10,10,0,10,0.00,0.00,0.00,0.00
2017-08-07 11:50:00,0,8503,10,0.00,0,0,0,0,8037,8787,209,8578,10,10,0,10,0.00,0.00,0.00,0.00
2017-08-07 12:00:00,0,8469,10,0.00,0,0,0,0,8144,8803,172,8482,10,10,0,10,0.00,0.00,0.00,0.00
2017-08-07 12:10:00,0,8568,10,0.00,0,0,0,0,8238,9084,267,8502,10,10,0,10,0.00,0.00,0.00,0.00
2017-08-07 12:20:00,0,8430,10,0.00,0,0,0,0,8047,8772,189,8396,10,10,0,10,0.00,0.00,0.00,0.00
2017-08-07 12:30:00,0,8464,10,0.00,0,0,0,0,8115,8749,174,8486,10,10,0,10,0.00,0.00,0.00,0.00
2017-08-07 12:40:00,0,8721,10,0.00,0,0,0,0,8222,9258,267,8718,10,10,0,10,0.00,0.00,0.00,0.00
2017-08-07 12:50:00,0,8793,10,0.00,0,0,0,0,8344,9144,209,8765,10,10,0,10,0.00,0.00,0.00,0.00
2017-08-07 13:00:00,0,8767,10,0.00,0,0,0,0,8375,9188,210,8792,10,10,0,10,0.00,0.00,0.00,0.00
2017-08-07 13:10:00,0,8733,10,0.00,0,0,0,0,8340,8914,173,8790,10,10,0,10,0.00,0.00,0.00,0.00
2017-08-07 13:20:00,0,8508,10,0.00,0,0,0,0,8301,8724,132,8521,10,10,0,10,0.00,0.00,0.00,0.00
2017-08-07 13:30:00,0,8402,10,0.00,0,0,0,0,8254,8635,124,8392,10,10,0,10,0.00,0.00,0.00,0.00
2017-08-07 13:40:00,0,8409,10,0.00,0,0,0,0,8239,8590,126,8398,10,10,0,10,0.00,0.00,0.00,0.00
2017-08-07 13:50:00,0,8003,4,0.00,0,0,0,0,7836,8164,127,8024,4,4,0,4,0.00,0.00,0.00,0.00
2017-08-07 14:00:00,0,7886,4,0.00,0,0,0,0,7659,8066,131,7882,4,4,0,4,0.00,0.00,0.00,0.00
2017-08-07 14:10:00,0,8093,4,0.00,0,0,0,0,7729,8559,264,8042,4,4,0,4,0.00,0.00,0.00,0.00
2017-08-07 14:20:00,0,8214,4,0.00,0,0,0,0,8046,8454,118,8187,4,4,0,4,0.00,0.00,0.00,0.00
2017-08-07 14:30:00,0,8358,4,0.00,0,0,0,0,8109,8639,178,8344,4,4,0,4,0.00,0.00,0.00,0.00
2017-08-07 14:40:00,0,8199,4,0.00,0,0,0,0,7987,8367,118,8226,4,4,0,4,0.00,0.00,0.00,0.00
2017-08-07 14:50:00,0,8266,4,0.00,0,0,0,0,7865,8594,206,8216,4,4,0,4,0.00,0.00,0.00,0.00
2017-08-07 15:00:00,0,7901,4,0.00,0,0,0,0,7690,8088,125,7918,4,4,0,4,0.00,0.00,0.00,0.00
2017-08-07 15:10:00,0,7529,4,0.00,0,0,0,0,7232,7798,185,7541,4,4,0,4,0.00,0.00,0.00,0.00
2017-08-07 15:20:00,0,7216,4,0.00,0,0,0,0,7028,7406,135,7151,4,4,0,4,0.00,0.00,0.00,0.00
2017-08-07 15:30:00,0,6933,4,0.00,0,0,0,0,6722,7225,161,6931,4,4,0,4,0.00,0.00,0.00,0.00
2017-08-07 15:40:00,0,6357,4,0.00,0,0,0,0,6014,6754,210,6390,4,4,0,4,0.00,0.00,0.00,0.00
2017-08-07 15:50:00,0,5962,8,0.00,0,0,0,0,5795,6120,97,5974,4,10,3,10,0.00,0.00,0.00,0.00
2017-08-07 16:00:00,0,5596,10,0.00,0,0,0,0,5439,5780,104,5584,10,10,0,10,0.00,0.00,0.00,0.00
2017-08-07 16:10:00,0,5339,10,0.00,0,0,0,0,5198,5539,125,5284,10,10,0,10,0.00,0.00,0.00,0.00
2017-08-07 16:20:00,0,5075,10,0.00,0,0,0,0,5016,5196,55,5060,10,10,0,10,0.00,0.00,0.00,0.00
2017-08-07 16:30:00,0,5006,10,0.00,0,0,0,0,4882,5072,51,5010,10,10,0,10,0.00,0.00,0.00,0.00
2017-08-07 16:40:00,0,4952,10,0.00,0,0,0,0,4837,5047,60,4951,10,10,0,10,0.00,0.00,0.00,0.00
2017-08-07 16:50:00,0,4871,10,0.00,0,0,0,0,4734,4976,65,4889,10,10,0,10,0.00,0.00,0.00,0.00
2017-08-07 17:00:00,0,4713,10,0.00,0,0,0,0,4557,4839,90,4721,10,10,0,10,0.00,0.00,0.00,0.00
2017-08-07 17:10:00,0,4496,10,0.00,0,0,0,0,4364,4635,90,4494,10,10,0,10,0.00,0.00,0.00,0.00
2017-08-07 17:20:00,0,4293,10,0.00,0,0,0,0,4214,4408,59,4289,10,10,0,10,0.00,0.00,0.00,0.00
2017-08-07 17:30:00,0,4112,10,0.00,0,0,0,0,3993,4244,70,4115,10,10,0,10,0.00,0.00,0.00,0.00
2017-08-07 17:40:00,0,3967,10,0.00,0,0,0,0,3888,4030,47,3984,10,10,0,10,0.00,0.00,0.00,0.00
2017-08-07 17:50:00,0,3823,10,0.00,0,0,0,0,3740,3902,44,3820,10,10,0,10,0.00,0.00,0.00,0.00
2017-08-07 18:00:00,0,3751,10,0.00,0,0,0,0,3697,3836,33,3750,10,10,0,10,0.00,0.00,0.00,0.00
2017-08-07 18:10:00,0,3046,41,7.30,0,0,0,0,1810,3679,558,3292,10,63,25,61,0.00,47.75,14.51,0.28
2017-08-07 18:20:00,0,3155,46,6.53,0,0,0,0,2737,3496,275,3133,10,62,24,61,0.00,24.55,7.65,3.43
2017-08-07 18:30:00,0,3513,10,0.00,0,0,0,0,3453,3559,29,3522,10,10,0,10,0.00,0.00,0.00,0.00
2017-08-07 18:40:00,0,3453,10,0.00,0,0,0,0,3407,3562,43,3450,10,10,0,10,0.00,0.00,0.00,0.00
2017-08-07 18:50:00,0,3297,10,0.00,0,0,0,0,3244,3378,46,3283,10,10,0,10,0.00,0.00,0.00,0.00
2017-08-07 19:00:00,0,3280,10,0.00,0,0,0,0,3219,3330,34,3280,10,10,0,10,0.00,0.00,0.00,0.00
2017-08-07 19:10:00,0,3124,20,4.32,0,0,0,0,2943,3246,91,3133,10,63,21,10,0.00,41.85,12.52,0.00
2017-08-07 19:20:00,0,2890,41,1.87,0,0,0,0,2676,3011,118,2957,10,61,25,61,0.00,7.75,2.66,0.05
2017-08-07 19:30:00,0,2878,33,0.47,0,0,0,0,2526,3004,160,2962,10,61,23,31,0.00,2.30,0.74,0.00
2017-08-07 19:40:00,0,3037,24,0.14,0,0,0,0,2984,3101,31,3040,10,61,21,10,0.00,0.70,0.27,0.00
2017-08-07 19:50:00,0,3022,23,0.12,0,0,0,0,2876,3124,65,3016,10,61,21,10,0.00,0.65,0.21,0.00
2017-08-07 20:00:00,0,2959,57,0.82,0,0,0,0,2910,3003,28,2962,41,61,6,61,0.00,3.40,1.00,0.45
2017-08-07 20:10:00,0,3157,61,0.94,0,0,0,0,3043,3330,83,3145,61,61,0,61,0.00,3.30,1.22,0.05
2017-08-07 20:20:00,0,3353,49,0.09,0,0,0,0,3124,3530,139,3402,10,61,20,61,0.00,0.60,0.17,0.05
2017-08-07 20:30:00,0,3265,10,0.00,0,0,0,0,3208,3309,32,3262,10,10,0,10,0.00,0.00,0.00,0.00
2017-08-07 20:40:00,0,3392,10,0.00,0,0,0,0,3316,3506,58,3411,10,10,0,10,0.00,0.00,0.00,0.00
2017-08-07 20:50:00,0,3436,10,0.00,0,0,0,0,3327,3524,63,3431,10,10,0,10,0.00,0.00,0.00,0.00
2017-08-07 21:00:00,0,3236,10,0.00,0,0,0,0,3182,3323,48,3226,10,10,0,10,0.00,0.00,0.00,0.00
2017-08-07 21:10:00,0,3149,10,0.00,0,0,0,0,3098,3193,32,3152,10,10,0,10,0.00,0.00,0.00,0.00
2017-08-07 21:20:00,0,3007,10,0.00,0,0,0,0,2941,3143,55,3000,10,10,0,10,0.00,0.00,0.00,0.00
2017-08-07 21:30:00,0,2865,10,0.00,0,0,0,0,2802,2951,44,2851,10,10,0,10,0.00,0.00,0.00,0.00
2017-08-07 21:40:00,0,2779,10,0.00,0,0,0,0,2704,2842,45,2787,10,10,0,10,0.00,0.00,0.00,0.00
2017-08-07 21:50:00,0,2626,10,0.00,0,0,0,0,2580,2659,25,2634,10,10,0,10,0.00,0.00,0.00,0.00
2017-08-07 22:00:00,0,2563,10,0.00,0,0,0,0,2536,2595,18,2564,10,10,0,10,0.00,0.00,0.00,0.00
2017-08-07 22:10:00,0,2530,10,0.00,0,0,0,0,2506,2552,16,2533,10,10,0,10,0.00,0.00,0.00,0.00
2017-08-07 22:20:00,0,2518,10,0.00,0,0,0,0,2485,2547,20,2518,10,10,0,10,0.00,0.00,0.00,0.00
2017-08-07 22:30:00,0,2547,10,0.00,0,0,0,0,2506,2586,26,2552,10,10,0,10,0.00,0.00,0.00,0.00
2017-08-07 22:40:00,0,2562,10,0.00,0,0,0,0,2495,2615,38,2568,10,10,0,10,0.00,0.00,0.00,0.00
2017-08-07 22:50:00,0,2614,10,0.00,0,0,0,0,2571,2659,27,2615,10,10,0,10,0.00,0.00,0.00,0.00
2017-08-07 23:00:00,0,2760,10,0.00,0,0,0,0,2624,2901,91,2754,10,10,0,10,0.00,0.00,0.00,0.00
2017-08-07 23:10:00,0,2935,10,0.00,0,0,0,0,2825,3047,71,2910,10,10,0,10,0.00,0.00,0.00,0.00
2017-08-07 23:20:00,0,3093,10,0.00,0,0,0,0,3010,3202,65,3095,10,10,0,10,0.00,0.00,0.00,0.00
2017-08-07 23:30:00,0,3223,10,0.00,0,0,0,0,3069,3377,83,3224,10,10,0,10,0.00,0.00,0.00,0.00
2017-08-07 23:40:00,0,3444,10,0.00,0,0,0,0,3298,3656,107,3460,10,10,0,10,0.00,0.00,0.00,0.00
2017-08-07 23:50:00,0,3490,10,0.00,0,0,0,0,3301,3684,116,3510,10,10,0,10,0.00,0.00,0.00,0.00
